Cloud_Cover
5 13 5 5 5 0 3 22 31 29 29 73 95 100 99 40 71 100 100 100 100 100 100 100 100 100 100 100 100 100 100 100 100 100 100 100 100 100 100 100 100 100 100 100
5 5 26 1 0 0 2 6 8 6 24 33 62 56 98 100 99 50 100 100 100 100 100 100 100 100 100 100 100 100 100 92 100 100 100 100 100 100 100 100 100 100 100 100
3 4 12 44 60 30 83 100 92 91 45 5 25 94 46 26 56 100 92 87 100 100 100 100 100 100 100 100 100 100 100 100 100 100 100 100 100 100 100 100 100 100 100 100
4 13 44 52 5 36 78 36 70 23 87 97 48 80 20 7 7 94 100 99 33 24 91 100 100 100 100 100 100 100 100 100 100 100 100 100 100 100 100 100 100 100 100 100
4 0 0 5 4 45 65 17 83 92 53 42 68 68 96 27 45 44 62 100 100 100 94 48 100 100 100 100 100 100 100 100 100 100 100 100 100 100 100 100 100 100 100 100
5 1 0 5 5 2 5 48 53 89 100 100 15 98 92 38 98 71 100 92 99 100 100 100 100 83 91 100 100 100 100 100 100 100 100 100 100 100 100 100 100 100 100 100
0 1 0 1 0 0 56 36 36 66 87 69 43 78 70 59 94 94 100 100 100 97 92 82 97 98 41 91 100 100 100 100 100 100 100 100 100 100 100 100 100 100 100 100
0 1 0 0 0 4 1 0 4 45 100 88 39 8 44 82 83 92 92 100 86 67 100 100 24 67 52 5 5 36 31 99 100 100 100 100 100 100 100 100 100 100 100 100
0 0 0 0 4 0 0 4 18 3 5 1 0 0 0 5 26 85 94 26 10 22 69 92 78 56 34 17 75 50 5 66 92 38 90 100 100 100 100 100 100 100 100 100
0 0 0 0 0 0 4 3 2 4 5 5 5 1 1 0 21 89 76 24 62 100 100 80 76 97 89 92 100 99 83 62 76 100 80 82 100 100 90 85 98 100 97 98
0 0 0 0 0 3 3 2 5 5 5 5 5 5 5 2 0 12 65 54 45 24 60 100 94 100 97 100 100 100 99 100 100 100 100 100 98 100 55 76 100 100 100 100
0 0 0 0 0 0 0 3 5 5 5 5 14 47 5 5 2 2 100 100 100 79 33 78 88 90 99 100 98 100 100 100 100 100 99 99 100 100 100 100 100 100 100 100
5 0 0 0 0 0 4 2 4 5 6 15 88 96 77 18 12 23 100 100 100 100 100 56 86 99 99 100 100 55 100 100 100 100 100 100 100 100 100 100 100 100 100 100
5 0 0 0 1 3 1 1 4 22 38 96 100 67 100 100 62 100 100 100 100 97 98 100 100 64 51 97 100 100 100 91 100 100 100 100 100 100 100 100 100 100 100 100
5 2 0 0 4 4 5 5 93 100 88 100 100 100 89 59 54 100 100 100 100 97 100 100 100 100 99 87 95 100 100 100 100 100 100 100 100 100 100 100 100 100 100 100
6 5 5 4 5 5 5 21 100 100 100 100 100 100 100 100 100 100 100 100 100 100 100 100 100 100 100 100 100 100 100 100 100 100 100 100 100 100 100 100 100 100 100 100
14 5 4 5 5 5 5 100 100 100 100 100 100 100 100 100 100 100 100 100 100 100 100 100 100 100 100 78 73 100 100 100 100 100 100 100 100 100 100 100 100 100 100 100
32 8 5 4 5 5 73 100 100 100 100 94 100 100 100 100 100 100 100 100 100 100 100 100 100 100 100 100 97 97 100 100 100 100 100 100 100 100 100 100 100 100 100 100
42 18 5 5 5 32 95 100 100 100 100 100 100 100 100 100 89 89 100 100 100 100 100 100 100 98 100 100 100 100 100 100 100 100 100 100 100 100 100 100 100 100 100 100
5 9 7 38 100 98 100 100 100 100 46 5 5 5 48 78 54 46 96 22 100 100 100 100 88 76 100 100 100 100 100 100 100 100 100 100 100 100 100 100 100 100 100 100
50 14 88 91 100 100 100 79 56 5 5 5 2 7 12 29 35 24 79 16 94 100 100 60 5 7 6 85 100 100 100 100 100 100 100 100 100 100 100 100 100 100 100 100
10 74 76 100 89 97 55 19 5 5 3 3 5 27 80 87 100 82 72 52 100 100 31 5 8 37 65 36 10 63 99 100 100 100 100 100 100 100 100 100 100 100 100 100
44 100 100 100 100 49 5 5 5 5 8 45 100 98 94 97 100 100 75 99 80 68 11 14 37 53 30 58 87 56 42 52 74 98 100 100 100 100 100 100 100 100 100 100
90 100 97 47 5 5 5 5 36 47 96 88 30 32 45 16 29 45 54 100 61 36 14 8 21 31 74 98 100 100 97 86 84 96 100 100 100 100 100 100 100 100 100 100
6 22 28 16 36 93 24 73 34 5 5 7 5 5 5 35 62 16 84 28 24 86 100 43 54 82 74 100 100 100 100 100 100 100 100 100 100 100 100 100 100 100 100 100
81 84 98 99 41 14 32 10 5 5 27 5 4 5 5 5 41 13 26 5 10 31 100 100 100 100 81 88 100 100 100 100 100 100 100 100 100 100 100 100 100 100 100 100
100 92 100 99 82 19 43 5 5 5 5 5 0 4 5 5 5 17 5 5 5 5 6 31 94 100 100 98 92 100 100 100 100 100 100 100 100 100 100 100 100 100 100 100